Regional Weather Roundup
Issued by NWS Midland/Odessa, TX

Home | Current Version | Previous Version | Text Only | Print | Product List | Glossary On
Versions: 1 2 3 4 5 6 7 8 9 10 11 12 13 14 15 16 17 18 19 20 21 22 23 24 25 26 27 28 29 30 31 32 33 34 35 36 37 38 39 40 41 42 43 44 45 46 47 48 49 50
000
ASUS44 KMAF 280510
RWRMAF
MIDLAND AREA WEATHER ROUNDUP
NATIONAL WEATHER SERVICE MIDLAND TX
1200 AM CDT SUN MAY 28 2017

...IN SOUTHWEST TEXAS AND SOUTHEAST NEW MEXICO...

CITY           SKY/WX    TMP DP  RH WIND       PRES   REMARKS
ALPINE         CLOUDY    77  34  20 CALM      30.09R
ANDREWS        FAIR      82  19  10 W13       29.93R
ARTESIA        CLEAR     75  10   8 W15       29.94S
BIG SPRING     MOCLDY    76  38  25 SE13      29.91R
CARLSBAD       CLEAR     69  16  13 W12       29.92R
DRYDEN           N/A     81  71  71 N7        29.85F
FORT STOCKTON  CLEAR     82  63  52 SE8       29.94R
GUAD PASS      CLEAR     78  19  11 NW13G22   30.11R
HOBBS          CLEAR     70   5   8 W8        29.96S
MARFA          PTCLDY    70  32  24 NE3       30.08R
MIDLAND AIRPK  CLEAR     82  30  15 SW5       29.91R
MIDLAND INTL   CLEAR     76  34  21 SW3       29.90R
ODESSA         CLEAR     79  29  16 S5        29.92R
PECOS          PTCLDY    78  28  15 NW3       29.89R
PRESIDIO       FAIR      92  34  13 N9        29.90R
SEMINOLE       CLEAR     76  15  10 W10       29.94R
SNYDER         MOCLDY    79  31  17 SW3       29.86S
WINK           CLEAR     80  21  11 NW9       29.89R
$$
...OTHER STATIONS IN TEXAS...

CITY           SKY/WX    TMP DP  RH WIND       PRES   REMARKS
ABILENE        CLEAR     84  70  62 S14G20    29.82R
AMARILLO       CLEAR     56  49  77 N25G32    30.09R
AUSTIN         MOCLDY    79  74  84 S12       29.87S
BROWNSVILLE    CLOUDY    84  79  85 SE12      29.88R
CORPUS CHRISTI CLOUDY    80  78  94 S14       29.86S
DALLAS FTW     CLEAR     85  75  72 S20       29.74S
DEL RIO        PTCLDY    81  71  71 S8        29.78S
EL PASO        CLEAR     81  12   7 NW3       30.00R
HOUSTON INT    CLOUDY    81  75  82 S10       29.86F
LUBBOCK        PTCLDY    72  24  16 SE8       29.90R
SAN ANGELO     CLEAR     85  67  54 S10       29.85R
SAN ANTONIO    CLOUDY    79  73  82 SE16G25   29.87F
WACO           PTCLDY    81  72  74 S20G29    29.79F
WICHITA FALLS  NOT AVBL
$$
...OTHER LOCATIONS IN NEW MEXICO...

CITY           SKY/WX    TMP DP  RH WIND       PRES   REMARKS
ALAMOGORDO     CLEAR     68   9  10 E3        30.02S
ALBUQUERQUE    CLEAR     71  21  15 N14       30.11R
CANNON AFB     CLEAR     58  49  71 NE33G47   30.06R
CLOVIS         CLEAR     59  45  58 N32G43    30.08R
HOLLOMAN AFB   CLEAR     71   4   7 CALM      30.04R
ROSWELL        CLEAR     76   6   7 W16       29.94R
RUIDOSO        CLEAR     64   5   9 SW13      30.20R
SANTA FE       CLEAR     55  22  27 N10       30.16R
TRUTH OR CONSE LGT RAIN  69   4   7 W8        30.06R
TUCUMCARI      PTCLDY    59  47  64 NE18G28   30.12R
$$



USA.gov is the U.S. government's official web portal to all federal, state and local government web resources and services.